Date String (YYYY-MM-DD hh:mm:ss) UTC,Instrument flags,Ambient pressure (hPa),Sample flow (lpm),Bypass flow (lpm),Sample temperature (°C),Ambient temperature (°C),ASC tube jacket temperature (°C),LED temperature (°C),Box temperature (°C),Sample RH (%),Span deviation,Mass concentration (μg/m³),Mass concentration (μg/m³),Mass concentration (μg/m³)
DateTimeUTC,F1_M11,P_M11,Q1_M11,Q2_M11,T1_M11,T2_M11,T3_M11,T4_M11,T5_M11,U1_M11,ZSPAN_M11,X2_M11,X0_M11,X1_M11
2022-03-23 02:00:00,,0829.4,5.00,0.00,21.9,21.4,00.0,30.9,23.5,08.3,0000.0,0000.70,0002.47,0000.50
2022-03-23 02:01:00,,0829.3,5.01,0.00,21.8,21.3,00.0,30.9,23.4,08.3,0000.0,0000.74,0002.56,0000.50
2022-03-23 02:02:00,,0829.3,5.00,0.00,21.8,21.2,00.0,30.9,23.4,08.4,0000.0,0000.77,0002.63,0000.50
2022-03-23 02:03:00,,0829.4,5.01,0.00,21.8,21.1,00.0,30.9,23.4,08.4,0000.0,0000.76,0002.62,0000.50
2022-03-23 02:04:00,,0829.5,5.00,0.00,21.8,21.1,00.0,30.9,23.4,08.4,0000.0,0000.75,0002.59,0000.50
2022-03-23 02:05:00,,0829.4,5.00,0.00,21.8,21.0,00.0,30.9,23.4,08.5,0000.0,0000.76,0001.94,0000.50
2022-03-23 02:06:00,,0829.4,4.99,0.00,21.7,21.0,00.0,30.9,23.4,08.5,0000.0,0000.79,0001.38,0000.51
2022-03-23 02:07:00,,0829.5,4.99,0.00,21.7,20.9,00.0,30.8,23.4,08.5,0000.0,0000.85,0001.48,0000.51
2022-03-23 02:08:00,,0829.5,5.00,0.00,21.7,20.9,00.0,30.8,23.4,08.5,0000.0,0000.84,0001.45,0000.51
2022-03-23 02:09:00,,0829.5,5.00,0.00,21.7,20.8,00.0,30.8,23.3,08.6,0000.0,0000.85,0001.52,0000.51
2022-03-23 02:10:00,,0829.5,5.00,0.00,21.7,20.8,00.0,30.8,23.3,08.6,0000.0,0000.86,0001.55,0000.52
2022-03-23 02:11:00,,0829.5,5.00,0.00,21.7,20.8,00.0,30.8,23.3,08.7,0000.0,0000.89,0001.63,0000.52
2022-03-23 02:12:00,,0829.5,4.99,0.00,21.6,20.8,00.0,30.8,23.3,08.8,0000.0,0000.87,0001.57,0000.52
2022-03-23 02:13:00,,0829.5,5.00,0.00,21.6,20.8,00.0,30.8,23.3,08.8,0000.0,0000.86,0001.58,0000.52
2022-03-23 02:14:00,,0829.5,5.00,0.00,21.6,20.8,00.0,30.7,23.3,08.8,0000.0,0000.84,0001.53,0000.51
2022-03-23 02:15:00,,0829.5,5.00,0.00,21.6,20.8,00.0,30.7,23.3,08.8,0000.0,0000.84,0001.53,0000.52
2022-03-23 02:16:00,,0829.5,5.00,0.00,21.6,20.9,00.0,30.7,23.3,08.8,0000.0,0000.86,0001.64,0000.51
2022-03-23 02:17:00,,0829.5,4.99,0.00,21.7,21.7,00.0,30.7,23.5,08.8,0000.0,0000.86,0001.66,0000.51
2022-03-23 02:18:00,,0829.5,5.01,0.00,21.9,22.6,00.0,30.8,23.8,08.7,0000.0,0000.81,0001.57,0000.52
2022-03-23 02:19:00,,0829.5,4.99,0.00,22.0,23.1,00.0,30.8,24.0,08.6,0000.0,0000.79,0001.54,0000.52
2022-03-23 02:20:00,,0829.5,5.01,0.00,22.1,22.9,00.0,30.9,24.1,08.5,0000.0,0000.82,0001.59,0000.52
2022-03-23 02:21:00,,0829.5,5.00,0.00,22.1,22.6,00.0,30.9,24.0,08.5,0000.0,0000.82,0001.55,0000.52
2022-03-23 02:22:00,,0829.5,4.99,0.00,22.1,22.3,00.0,30.9,24.0,08.5,0000.0,0000.79,0001.43,0000.53
2022-03-23 02:23:00,,0829.5,4.99,0.00,22.1,22.1,00.0,30.9,23.9,08.5,0000.0,0000.82,0001.48,0000.53
2022-03-23 02:24:00,,0829.5,5.00,0.00,22.1,21.9,00.0,30.9,23.9,08.5,0000.0,0000.80,0001.43,0000.53
2022-03-23 02:25:00,,0829.6,5.00,0.00,22.1,21.8,00.0,30.9,23.8,08.5,0000.0,0000.81,0001.44,0000.54
2022-03-23 02:26:00,,0829.6,5.01,0.00,22.1,21.7,00.0,31.0,23.8,08.5,0000.0,0000.82,0001.46,0000.55
2022-03-23 02:27:00,,0829.6,4.98,0.00,22.0,21.6,00.0,31.0,23.8,08.5,0000.0,0000.81,0001.37,0000.56
2022-03-23 02:28:00,,0829.6,5.00,0.00,22.0,21.5,00.0,31.0,23.8,08.6,0000.0,0000.78,0001.43,0000.56
2022-03-23 02:29:00,,0829.7,5.02,0.00,22.0,21.4,00.0,31.0,23.8,08.6,0000.0,0000.79,0001.55,0000.56
2022-03-23 02:30:00,,0829.6,4.99,0.00,22.0,21.4,00.0,31.0,23.7,08.6,0000.0,0000.81,0001.62,0000.57
2022-03-23 02:31:00,,0829.7,5.00,0.00,22.0,21.3,00.0,31.0,23.7,08.7,0000.0,0000.77,0001.51,0000.57
2022-03-23 02:32:00,,0829.7,5.00,0.00,22.0,21.3,00.0,31.0,23.7,08.7,0000.0,0000.75,0001.47,0000.57
2022-03-23 02:33:00,,0829.8,5.00,0.00,22.0,21.3,00.0,31.0,23.7,08.7,0000.0,0000.75,0001.49,0000.56
2022-03-23 02:34:00,,0829.8,5.00,0.00,22.0,21.2,00.0,31.0,23.7,08.8,0000.0,0000.72,0001.60,0000.56
2022-03-23 02:35:00,,0829.8,5.00,0.00,22.0,21.2,00.0,31.0,23.7,08.9,0000.0,0000.73,0002.61,0000.57
2022-03-23 02:36:00,,0829.9,5.00,0.00,22.0,21.2,00.0,31.0,23.7,09.0,0000.0,0000.75,0002.69,0000.57
2022-03-23 02:37:00,,0830.0,5.00,0.00,22.0,21.2,00.0,31.0,23.7,09.2,0000.0,0000.82,0002.94,0000.57
2022-03-23 02:38:00,,0830.0,5.00,0.00,22.0,21.2,00.0,31.0,23.7,09.6,0000.0,0000.89,0003.11,0000.58
2022-03-23 02:39:00,,0830.1,5.00,0.00,22.0,21.2,00.0,31.0,23.7,09.8,0000.0,0000.91,0003.05,0000.60
2022-03-23 02:40:00,,0830.1,4.99,0.00,22.0,21.2,00.0,31.0,23.7,10.3,0000.0,0000.91,0002.98,0000.61
2022-03-23 02:41:00,,0830.1,5.00,0.00,22.0,21.2,00.0,31.0,23.7,10.2,0000.0,0000.94,0003.03,0000.62
2022-03-23 02:42:00,,0830.0,5.00,0.00,22.0,21.2,00.0,30.9,23.7,10.2,0000.0,0000.96,0003.54,0000.63
2022-03-23 02:43:00,,0830.1,4.99,0.00,21.9,21.2,00.0,30.9,23.7,10.2,0000.0,0001.00,0005.08,0000.64
2022-03-23 02:44:00,,0830.1,4.99,0.00,21.9,21.2,00.0,30.9,23.7,10.3,0000.0,0001.03,0005.29,0000.65
2022-03-23 02:45:00,,0830.0,5.01,0.00,21.9,21.1,00.0,30.9,23.7,10.5,0000.0,0001.06,0005.16,0000.68
2022-03-23 02:46:00,,0829.9,4.99,0.00,21.9,21.1,00.0,30.9,23.6,10.6,0000.0,0001.09,0004.25,0000.69
2022-03-23 02:47:00,,0829.8,5.00,0.00,21.9,21.1,00.0,30.9,23.5,11.0,0000.0,0001.10,0004.20,0000.70
2022-03-23 02:48:00,,0829.8,5.00,0.00,21.9,21.1,00.0,30.9,23.5,11.6,0000.0,0001.05,0004.01,0000.71
2022-03-23 02:49:00,,0829.9,5.00,0.00,21.8,21.0,00.0,30.9,23.5,11.9,0000.0,0001.02,0004.50,0000.70
2022-03-23 02:50:00,,0830.0,5.00,0.00,21.8,21.0,00.0,30.9,23.4,12.0,0000.0,0001.04,0006.55,0000.70
2022-03-23 02:51:00,,0830.0,5.00,0.00,21.8,21.0,00.0,30.9,23.4,12.1,0000.0,0001.05,0006.84,0000.68
2022-03-23 02:52:00,,0830.1,5.00,0.00,21.8,21.1,00.0,30.9,23.4,12.1,0000.0,0001.07,0006.97,0000.67
2022-03-23 02:53:00,,0830.0,5.00,0.00,21.9,21.9,00.0,30.9,23.7,12.0,0000.0,0001.17,0007.38,0000.66
2022-03-23 02:54:00,,0830.1,5.01,0.00,22.0,22.8,00.0,30.9,24.0,12.0,0000.0,0001.29,0006.82,0000.65
2022-03-23 02:55:00,,0830.0,5.01,0.00,22.1,23.0,00.0,31.0,24.1,12.0,0000.0,0001.40,0008.16,0000.65
2022-03-23 02:56:00,,0830.0,5.00,0.00,22.2,22.7,00.0,31.0,24.1,12.0,0000.0,0001.47,0008.36,0000.64
2022-03-23 02:57:00,,0830.0,4.99,0.00,22.1,22.3,00.0,31.0,24.0,12.0,0000.0,0001.51,0008.91,0000.64
2022-03-23 02:58:00,,0830.0,5.00,0.00,22.1,22.1,00.0,31.0,23.9,12.1,0000.0,0001.55,0009.68,0000.62
2022-03-23 02:59:00,,0830.0,4.99,0.00,22.1,21.9,00.0,31.0,23.8,12.2,0000.0,0001.65,0010.47,0000.62
